EUTELSAT 117 WEST B

Last updated on Thu Oct 30 2025 00:02:50 GMT+0000 (Coordinated Universal Time)

1 41589U 16038B 25301.66289697 -.00000001 00000+0 00000+0 0 9999 2 41589 0.0116 100.9255 0000396 188.3623 229.6205 1.00271247 34342
UTC large
Height (km)
Speed (km/s)
/
Latitude / Longitude
Inclination (degrees)
Orbital Period (minutes)
Azimuth
Elevation
Range (km)
Doppler Factor

Next 0 passes for location: London (51.5072 / 0.1276)

Sorry there are no passes over London.